www.pogodaiklimat.ru

Погода и климат >> Архив погоды >> Южная Африка >> Клануильям


ПОГОДА в Клануильяме

  • Прогноз погоды в Клануильяме
  • Монитор погоды в Клануильяме

АРХИВ ПОГОДЫ в Клануильяме

Время (UTC), дата Ветер
(напр.,м/с)
 
Видим.   Явления Облачность Т
(С)
Тd
(С)
f
(%)
Тe
(С)
Тes
(С)
Комфортность P
(гПа)
Po
(гПа)
Тmin
(С)
Tmax
(С)
R
(мм)
R24
(мм)
S
(см)
00 9.09 штиль 0 н/о н/о +15.6 +10.6 72 +15 +15 1018.2 1006.3 +15.6 +38.4
03 9.09 З 2 н/о н/о +13.5 +9.9 79 +13 +13 1017.6 1005.6 +13.5 +38.4
06 9.09 С 1 н/о н/о +13.6 +9.8 78 +14 +14 1018.9 1006.9 +13.1
12 9.09 С 3 н/о н/о +35.1 +0.7 11 +32 +32 жарко 1012.9 1001.8 +13.1 +35.1
15 9.09 З 4 н/о н/о +28.4 +9.9 32 +29 +29 жарко 1014.1 1002.7 +28.4 +35.2
18 9.09 СЗ 1 н/о н/о +22.4 +10.7 47 +24 +24 комфорт 1015.4 1003.8 +22.4 +35.2
21 9.09 С 3 н/о н/о +16.8 +11.1 69 +17 +17 1016.5 1004.7 +16.8 +35.2
00 10.09 СЗ 2 н/о н/о +14.2 +11.2 82 +14 +14 1016.9 1004.9 +14.2 +35.2
03 10.09 штиль 0 н/о н/о +12.7 +10.2 85 +12 +12 1015.5 1003.5 +12.7 +35.2
06 10.09 штиль 0 н/о н/о +13.0 +10.7 86 +13 +13 1016.0 1004.0 +11.9
09 10.09 С 1 н/о н/о +20.5 +11.0 54 +23 +23 комфорт 1015.1 1003.4 +11.9 +20.5
12 10.09 З 4 н/о н/о +25.5 +10.7 39 +26 +26 жарко 1013.9 1002.4 +11.9 +27.0
15 10.09 З 4 н/о н/о +21.2 +11.1 52 +23 +23 комфорт 1013.8 1002.2 +21.2 +27.0
18 10.09 З 3 н/о н/о +16.2 +10.3 68 +16 +16 1016.3 1004.4 +16.2 +27.0
21 10.09 С 1 н/о н/о +15.7 +10.7 72 +16 +16 1018.7 1006.8 +15.4 +27.0
00 11.09 З 2 н/о н/о +14.6 +10.2 75 +15 +15 1014.0 1002.1 +14.4 +27.0
03 11.09 Ю 2 н/о н/о +14.4 +10.2 76 +14 +14 1016.2 1004.3 +13.9 +27.0
06 11.09 С 1 н/о н/о +14.0 +9.6 75 +14 +14 1016.5 1004.5 +13.7
09 11.09 С 2 н/о н/о +19.0 +9.3 53 +20 +20 1015.8 1004.1 +13.7 +19.0
12 11.09 З 3 н/о н/о +23.4 +8.4 38 +25 +25 комфорт 1013.3 1001.8 +13.7 +23.5
15 11.09 З 5 н/о н/о +21.2 +9.2 46 +22 +22 комфорт 1012.8 1001.2 +21.2 +23.5
18 11.09 СЗ 3 н/о н/о +16.1 +10.0 67 +16 +16 1015.5 1003.6 +16.1 +23.5
21 11.09 штиль 0 н/о н/о +15.4 +10.4 72 +15 +15 1016.3 1004.4 +15.3 +23.5
00 12.09 С 3 н/о н/о +14.7 +12.5 87 +14 +14 1015.4 1003.5 +14.5 +23.5 3
03 12.09 С 1 н/о н/о +14.1 +12.5 90 +14 +14 1015.9 1003.9 +14.1 +23.5
06 12.09 штиль 0 н/о н/о +13.2 +11.6 90 +13 +13 1017.3 1005.3 +13.0 7
09 12.09 С 2 н/о н/о +14.3 +10.1 76 +14 +14 1018.3 1006.3 +13.0 +14.4
12 12.09 С 2 н/о н/о +15.8 +10.1 69 +16 +16 1017.7 1005.8 +12.8 +15.8 2
15 12.09 ЮЗ 4 н/о н/о +15.4 +7.5 59 +14 +14 1020.0 1008.1 +14.2 +16.0
18 12.09 ЮЗ 3 н/о н/о +12.9 +5.6 61 +12 +12 1022.9 1010.8 +12.9 +16.0 2
21 12.09 штиль 0 н/о н/о +9.3 +6.2 81 +9 +9 1024.4 1012.1 +9.3 +16.0
00 13.09 штиль 0 н/о н/о +8.4 +5.8 84 +8 +8 1024.8 1012.5 +8.3 +16.0 2
03 13.09 Ю 1 н/о н/о +8.6 +6.5 87 +8 +8 1024.0 1011.7 +7.8 +16.0
06 13.09 З 1 н/о н/о +9.9 +7.3 84 +9 +9 1025.4 1013.2 +7.8 2
09 13.09 С 1 н/о н/о +13.6 +8.0 69 +14 +14 1025.9 1013.8 +7.8 +13.6
12 13.09 ЮВ 2 н/о н/о +17.7 +5.4 44 +18 +18 1022.5 1010.6 +7.8 +17.8
15 13.09 З 4 н/о н/о +17.9 +8.0 52 +18 +18 1021.7 1009.8 +17.7 +18.8
18 13.09 Ю 2 н/о н/о +13.9 +8.1 68 +14 +14 1021.3 1009.3 +13.9 +18.8 0.2
21 13.09 Ю 1 н/о н/о +11.8 +6.3 69 +12 +12 1022.0 1009.9 +11.7 +18.8
00 14.09 З 2 н/о н/о +9.5 +6.9 84 +8 +8 1021.6 1009.4 +9.5 +18.8 0.2
09 14.09 З 1 н/о н/о +13.5 +5.9 60 +14 +14 1020.6 1008.6 +8.2 +13.5
12 14.09 СВ 2 н/о н/о +22.7 +2.4 26 +22 +22 комфорт 1017.1 1005.5 +8.2 +22.7
15 14.09 СЗ 2 н/о н/о +23.8 -6.0 13 +22 +22 комфорт 1015.7 1004.1 +23.0 +23.9
18 14.09 С 1 н/о н/о +17.6 +6.5 48 +19 +19 1017.8 1006.0 +17.6 +23.9
21 14.09 штиль 0 н/о н/о +13.4 +6.5 63 +13 +13 1018.5 1006.5 +13.4 +23.9
00 15.09 СЗ 2 н/о н/о +11.6 +6.9 73 +11 +11 1018.3 1006.2 +11.6 +23.9
03 15.09 штиль 0 н/о н/о +10.3 +6.8 79 +10 +10 1018.2 1006.1 +10.3 +23.9
06 15.09 штиль 0 н/о н/о +11.1 +7.4 78 +11 +11 1020.0 1007.9 +9.6
09 15.09 В 1 н/о н/о +20.1 +3.4 33 +22 +22 комфорт 1019.3 1007.6 +9.6 +20.1
12 15.09 В 2 н/о н/о +25.6 -1.8 16 +24 +24 комфорт 1016.8 1005.3 +9.6 +25.6
15 15.09 З 5 н/о н/о +24.5 -1.1 18 +23 +23 комфорт 1016.5 1005.0 +24.5 +26.5
18 15.09 С 2 н/о н/о +18.0 +0.7 31 +19 +19 1018.2 1006.4 +18.0 +26.5
21 15.09 З 1 н/о н/о +14.5 +4.2 50 +15 +15 1019.0 1007.0 +14.5 +26.5

 

Местоположение метеостанции Клануильям (Южная Африка): широта -32.18 долгота 18.89 высота над уровнем моря 100 м.

В архиве по умолчанию представлена погода в Клануильяме за последнюю неделю. Архивные данные за месяц целиком и за предыдущие месяцы, начиная с января 2011 года, Вы можете получить, выбрав интересующий диапазон дат из раскрывающегося списка и нажав кнопку "Ввод!".


*Определитесь, кто Вы:
робот инопланетянин человек

Внимание! Время в таблицах - всемирное. Для получения местного времени необходимо прибавить поправку, которая равна 2 ч.

Смотрите также архив погоды в соседних городах и на ближайших метеорологических станциях:

Погода в Ламбертс-Бей (Южная Африка) (55 км)
Погода в Фридендале (Южная Африка) (69 км)
Погода в Ниеувоудтвилле (Южная Африка) (95 км)
Погода на Станции Excelsior Ceres (Южная Африка) (100 км)
Погода в Лангебаанвеге (Южная Африка) (110 км)
Погода в Кальвинии (Южная Африка) (115 км)
Погода на Мысе Колумбайн (Южная Африка) (121 км)
Погода в Лангебане (Южная Африка) (129 км)
Погода в Гилбеке (Южная Африка) (134 км)
Погода в Малмсбери (Южная Африка) (143 км)

Пояснения к столбцам:

Ветер - указаны скорость ветра в м/с - средняя за 10 мин, порывы в срок и между сроками (в фигурных скобках) и направление, откуда дует ветер: С - северный, СВ - северо-восточный, В - восточный, ЮВ - юго-восточный, Ю - южный, ЮЗ - юго-западный, З - западный, СЗ - северо-западный.
Видимость - горизонтальная дальность видимости в метрах или километрах. При видимости от 1 до 10 км при отсутствии осадков обычно наблюдается дымка, при ухудшении видимости до 1 км и менее - туман. В сухую погоду видимость может ухудшаться дымом, пылью или мглою.
Явления - указаны атмосферные явления, наблюдавшиеся в срок или в последний час перед сроком; фигурными скобками обозначены явления, наблюдавшиеся между сроками (за 1-3 часа до срока); квадратными скобками обозначены град или гололедные отложения с указанием их диаметра в мм.
Облачность - указаны через наклонную черту общая и нижняя облачность в баллах и высота нижней границы облаков в метрах; квадратными скобками обозначены формы облаков: Ci - перистые, Cs - перисто-слоистые, Cc - перисто-кучевые, Ac - высококучевые, As - высокослоистые, Sc - слоисто-кучевые, Ns - слоисто-дождевые, Cu - кучевые, Cb - кучево-дождевые. Подробнее классификацию облаков см. в Атласе облаков (PDF).
T - Температура воздуха - температура, измеренная на высоте 2 м над землей.
Td - Температура точки росы - температура, при понижении до которой содержащийся в воздухе водяной пар достигнет насыщения.
f - Относительная влажность воздуха - влажноcть воздуха, измеренная на высоте 2 м над землей.
Te - Эффективная температура - температура, которую ощущает одетый по сезону человек в тени. Характеристика душности погоды. При расчете учитывается влияние влажности воздуха и скорости ветра на теплоощущения человека.
Tes - Эффективная температура на солнце - температура, которую ощущает человек, с поправкой на солнечный нагрев. Характеристика знойности погоды. Зависит от высоты солнца над горизонтом, облачности и скорости ветра. Ночью, в пасмурную погоду, а также при ветре 12 м/с и более поправка равна нулю.
P - Атмосферное давление - приведенное к уровню моря атмосферное давление.
Po - Атмосферное давление - измеренное на уровне метеостанции атмосферное давление.
Tmin - Минимальная температура - минимум температуры воздуха на высоте 2 м над землей.
Tmax - Максимальная температура - максимум температуры воздуха на высоте 2 м над землей.
R - Количество осадков - Количество выпавших осадков за период времени, мм. При наведении курсора мыши на число - период времени, за который выпало указанное количество осадков.
R24 - Количество осадков - Количество выпавших осадков за 24 часа, мм.
S - Снежный покров - Высота снежного покрова, см. При наведении курсора мыши на число - состояние снежного покрова и степень покрытия местности в баллах.